Retour au catalogue

OPS 8364

DMSP 4

ActifMétéoSSO
NORAD 6787·PAYLOAD·🇺🇸 United States

Lancé Aug 17, 1973 depuis Vandenberg Space Force Base

Loading…

Prochains Passages (prochaines 24 heures)

TLE

FraisSource: Space-Track

Époque: Sep 14, 2026, 01:22 UTC

1 06787U 73054A   26257.05758418  .00000156  00000-0  71733-4 0  9994
2 06787  98.5510 123.8065 0026411 130.1252 230.2253 14.33731616764505

Suivez OPS 8364 en temps réel avec AllMySat

Download on the App Store